This is the latest recevied weather packets stored in our database for station/object N1OF. If no packets are shown the sender has not sent any weather packets the latest 10 day(s).
| Time | Temp. | Humidity | Pressure | Rain* | Wind** | Luminosity | Snow |
|---|---|---|---|---|---|---|---|
| 1777906344 | 18.33° C | 55% | 1007.3 hPa | 0 mm | - | - | - |
| 1777906041 | 18.33° C | 54% | 1007.1 hPa | 0 mm | - | - | - |
| 1777905737 | 18.33° C | 54% | 1007.4 hPa | 0 mm | - | - | - |
| 1777905434 | 17.78° C | 55% | 1007.3 hPa | 0 mm | - | - | - |
| 1777905132 | 17.78° C | 56% | 1007.4 hPa | 0 mm | - | - | - |
| 1777904829 | 17.78° C | 55% | 1007.5 hPa | 0 mm | - | - | - |
| 1777904526 | 17.78° C | 56% | 1007.5 hPa | 0 mm | - | - | - |
| 1777904222 | 17.78° C | 56% | 1007.4 hPa | 0 mm | - | - | - |
| 1777903919 | 16.67° C | 58% | 1007.3 hPa | 0 mm | - | - | - |
| 1777903616 | 16.67° C | 57% | 1007.5 hPa | 0 mm | - | - | - |
| 1777903312 | 16.67° C | 57% | 1007.3 hPa | 0 mm | - | - | - |
| 1777903009 | 16.67° C | 57% | 1007.6 hPa | 0 mm | - | - | - |
| 1777902705 | 16.67° C | 57% | 1007.6 hPa | 0 mm | - | - | - |
| 1777902403 | 16.67° C | 57% | 1007.6 hPa | 0 mm | - | - | - |
| 1777902099 | 16.67° C | 57% | 1007.9 hPa | 0 mm | - | - | - |
| 1777901798 | 16.67° C | 58% | 1007.8 hPa | 0 mm | - | - | - |
| 1777901495 | 16.67° C | 57% | 1007.8 hPa | 0 mm | - | - | - |
| 1777901192 | 16.11° C | 58% | 1007.9 hPa | 0 mm | - | - | - |
| 1777900890 | 16.11° C | 58% | 1008.1 hPa | 0 mm | - | - | - |
| 1777900587 | 15.56° C | 59% | 1008.2 hPa | 0 mm | - | - | - |
| 1777900284 | 15.56° C | 59% | 1007.9 hPa | 0 mm | - | - | - |
| 1777899980 | 15.56° C | 60% | 1008 hPa | 0 mm | - | - | - |
| 1777899677 | 15° C | 61% | 1008.2 hPa | 0 mm | - | - | - |
| 1777899375 | 14.44° C | 61% | 1008 hPa | 0 mm | - | - | - |
| 1777899072 | 14.44° C | 62% | 1007.9 hPa | 0 mm | - | - | - |
* Rain latest hour (hover to see other rain measurements)
** Current wind speed in m/s (hover to see current wind gust speed)